RH
54 61 65 58 54 56 56 58 59 57 54 54 56 56 56 58 58 61 64 63 63 63 62 65 66 65 73 79 89 91 90 92 96 85 82 85 88 92 83 80 75 61 57
51 55 59 59 56 56 58 56 58 57 57 54 54 50 52 53 57 59 61 57 60 62 63 66 67 72 89 91 88 91 95 92 97 95 87 92 95 91 87 77 66 49 49
45 51 54 59 57 58 57 60 60 58 57 54 53 56 55 56 55 57 58 58 60 61 63 66 72 87 89 89 91 96 95 96 95 97 93 91 93 94 89 87 85 76 62
46 49 52 54 55 55 56 56 60 57 55 53 55 55 57 52 50 51 50 56 60 61 72 78 79 88 93 96 95 96 96 98 97 98 97 98 98 98 98 98 98 98 98
48 50 52 53 55 54 57 58 58 59 55 53 55 54 54 52 49 54 56 66 73 81 85 96 97 97 98 98 97 98 99 99 99 99 99 99 99 99 99 99 99 99 98
48 50 49 52 52 56 57 60 60 58 56 57 56 56 62 79 98 100 99 97 97 98 98 96 93 94 94 95 95 96 98 99 99 99 99 99 99 99 99 99 99 100 100
46 46 48 49 51 53 53 56 60 65 68 87 92 92 93 92 97 98 96 94 95 95 96 95 92 91 93 89 91 90 92 94 98 98 99 99 100 100 100 100 100 99 98
46 44 45 48 50 51 58 82 93 92 94 94 94 93 94 93 95 94 93 92 94 92 91 88 91 94 94 86 86 91 94 96 98 98 99 100 99 99 98 98 99 99 97
49 48 48 50 73 86 94 94 93 93 94 94 92 93 94 95 93 92 87 88 89 91 89 88 86 89 89 88 90 91 89 93 92 95 98 98 97 97 97 96 96 96 92
88 88 85 85 87 89 91 93 91 91 92 91 92 92 93 93 92 88 83 86 88 87 83 85 89 87 86 87 90 92 92 91 86 84 85 81 86 84 92 84 90 94 91
84 84 84 84 86 87 89 88 89 91 91 93 93 91 90 90 90 88 86 86 84 82 78 79 80 84 83 82 86 81 88 78 80 75 74 73 76 79 84 82 88 94 91
80 82 81 81 78 80 85 85 84 86 90 92 92 92 89 87 83 81 81 86 84 87 85 78 74 81 81 83 80 83 80 82 79 75 73 74 77 74 79 65 68 75 75
79 79 78 76 76 75 79 81 83 80 86 88 88 89 90 87 89 85 80 76 82 74 72 77 68 70 70 85 82 77 78 74 74 73 71 72 66 63 56 60 60 56 56
74 74 72 73 73 73 75 77 79 80 83 84 87 89 88 81 78 75 72 71 68 65 74 67 74 75 82 81 68 74 81 76 72 81 75 62 58 60 60 58 65 61 71
72 70 72 74 80 81 78 81 86 91 86 89 90 86 88 89 84 74 70 69 68 66 68 61 63 60 58 55 58 59 60 64 71 65 64 63 60 56 59 61 63 59 70
67 69 77 77 76 75 79 86 81 80 79 81 79 79 77 74 69 67 64 61 61 57 58 63 71 73 67 56 58 56 54 55 56 55 65 66 68 68 68 65 65 76 78
77 76 78 80 80 79 74 74 85 81 75 74 73 72 72 70 67 63 56 52 52 49 61 63 71 71 66 54 53 54 59 60 59 62 66 69 71 68 78 72 71 74 70
96 95 82 78 77 77 77 77 74 75 80 75 68 65 64 63 64 64 57 48 52 51 50 58 66 64 58 51 54 60 63 66 70 65 71 75 79 79 78 75 72 81 75
89 83 81 80 78 75 70 66 64 64 64 60 56 59 58 57 59 61 61 65 63 58 52 52 59 59 61 59 73 74 75 76 75 78 76 76 81 76 76 71 73 74 78
65 72 69 67 66 61 58 59 60 61 63 66 67 66 61 57 71 73 72 76 72 64 65 59 58 61 68 68 74 76 75 74 74 72 76 80 81 79 78 79 82 82 75
50 51 59 51 55 57 61 61 62 64 66 68 74 75 69 65 69 69 68 74 72 70 73 68 69 70 69 69 66 73 72 77 72 73 76 75 82 83 75 76 80 76 73
52 56 59 63 62 68 66 61 64 63 62 64 66 68 64 71 67 67 69 77 79 72 70 72 72 70 68 69 72 78 76 78 77 77 78 77 76 77 79 79 80 82 79
58 62 61 60 64 66 70 65 71 71 70 70 65 67 69 75 75 71 74 78 73 75 73 73 76 72 69 72 75 75 80 78 78 81 83 83 79 81 84 83 83 84 81
64 67 62 70 73 71 77 79 75 68 67 72 76 75 74 75 77 75 77 78 76 77 77 77 74 72 71 76 76 74 71 76 77 79 83 87 82 78 84 81 80 82 84
72 75 76 75 76 77 77 73 75 75 75 76 77 77 70 73 70 76 76 75 75 78 75 75 76 72 72 75 76 76 79 84 80 82 83 84 85 83 83 84 83 79 82
68 70 73 75 77 76 77 78 78 76 77 77 77 77 76 74 72 77 75 73 75 76 75 74 73 72 74 72 71 76 79 80 83 84 86 83 86 85 85 86 81 82 80
Wind_Speed
17 16 14 15 14 14 13 13 12 13 13 13 15 14 14 14 14 13 13 13 15 15 14 15 16 16 11 10 8 9 13 13 17 13 10 9 11 13 14 16 17 18 14
17 17 17 16 16 15 14 14 13 14 13 12 12 13 13 14 14 16 16 15 16 16 16 16 17 10 8 9 11 14 12 13 12 19 12 10 13 15 16 15 13 13 14
15 16 17 17 17 17 17 14 14 14 14 15 15 15 15 15 15 16 16 17 17 17 16 16 14 11 13 13 12 11 10 10 12 12 13 7 8 2 7 1 4 4 2
16 16 16 17 16 16 15 16 15 15 16 16 15 15 15 16 17 16 17 16 15 14 11 13 18 15 11 10 10 12 10 11 10 9 10 3 1 1 2 1 1 2 2
17 17 17 15 14 14 14 14 14 15 14 15 14 15 15 13 10 14 13 10 10 11 10 6 12 15 19 15 6 7 6 7 6 5 2 2 3 2 3 2 2 2 2
18 17 16 15 15 15 14 14 13 14 13 13 13 12 8 8 13 11 7 7 10 9 8 9 10 14 16 20 21 23 18 5 4 3 3 2 3 3 2 1 2 2 2
16 16 15 15 15 14 13 13 12 11 5 11 12 13 13 12 19 19 17 11 11 11 10 9 9 9 10 9 13 15 17 19 13 6 5 5 3 4 3 2 2 1 1
14 14 14 13 13 13 8 10 13 12 13 11 13 13 13 11 17 19 20 14 13 13 12 11 9 10 10 7 7 8 8 8 8 5 5 4 3 2 2 2 3 4 5
12 12 12 10 12 14 15 14 13 14 14 13 12 13 14 12 17 16 15 11 12 12 11 10 10 10 15 14 7 7 5 5 6 7 7 7 7 6 6 5 5 6 7
14 13 14 15 16 16 15 15 14 14 14 11 14 14 18 14 18 17 12 7 10 7 8 10 16 12 14 14 7 7 6 6 6 6 3 2 4 3 3 4 5 7 7
16 16 15 16 17 16 16 13 14 15 14 14 14 13 15 15 18 23 18 8 7 7 7 7 7 13 13 12 11 9 8 10 7 8 7 6 6 6 4 4 6 6 6
19 19 15 15 13 13 16 14 14 14 14 13 12 11 10 12 18 20 20 17 11 8 8 7 8 11 11 10 8 9 9 8 6 7 8 7 7 7 6 8 9 9 8
22 20 15 16 15 16 15 13 12 11 10 10 9 9 8 6 7 14 16 15 12 9 7 5 8 10 11 6 5 7 7 7 8 9 8 7 8 9 10 10 10 12 12
21 20 13 16 16 15 13 10 10 9 8 8 9 9 8 9 9 8 8 8 12 9 4 6 6 5 2 4 6 7 8 8 8 9 8 9 10 10 10 10 11 11 10
21 17 15 15 16 15 16 13 12 14 11 10 10 9 9 10 10 14 13 10 9 9 6 7 8 8 8 9 8 9 9 10 10 10 11 10 10 11 11 10 10 12 11
18 13 11 11 12 13 14 16 29 26 28 29 24 15 12 18 16 15 14 16 17 12 6 7 8 9 9 10 10 10 10 11 11 11 10 10 11 11 11 11 11 11 11
16 15 12 11 11 11 11 12 13 18 27 25 24 23 22 18 18 16 12 9 15 11 8 8 8 8 8 9 9 10 10 10 11 10 10 10 10 11 12 11 11 11 11
14 15 11 10 10 10 9 9 8 9 9 9 17 15 17 16 19 19 15 9 8 10 8 8 9 8 8 9 9 9 9 9 9 9 10 10 10 10 10 11 11 11 11
12 10 11 11 10 10 10 10 9 9 9 8 7 10 9 11 15 16 16 9 8 8 8 8 7 8 8 8 8 8 9 9 9 9 9 9 9 10 10 11 11 14 13
14 17 13 10 10 10 9 9 9 8 8 8 8 8 7 7 8 8 9 8 8 7 7 8 8 8 8 8 8 8 9 9 9 9 9 9 9 10 10 11 10 11 11
11 12 14 11 10 9 9 9 9 8 8 8 8 7 9 7 7 7 7 7 7 7 7 7 7 8 7 8 8 9 9 9 9 9 9 10 9 9 10 10 11 11 11
11 11 11 10 9 9 9 9 8 8 7 7 6 6 6 6 6 6 7 7 6 7 6 7 7 7 7 8 8 9 9 9 9 9 10 10 10 10 10 11 11 10 11
12 12 11 10 10 11 9 9 8 7 7 7 6 6 6 5 6 6 6 6 6 7 7 7 7 7 7 7 8 8 9 9 9 10 11 11 11 10 10 11 11 11 11
12 12 11 10 9 9 9 8 7 8 7 6 5 5 5 5 5 6 6 6 6 7 7 6 6 8 8 8 8 8 9 9 9 11 14 12 12 13 11 12 11 13 11
11 10 10 9 9 8 7 7 7 6 6 5 5 5 5 5 5 6 6 6 6 7 8 7 6 9 10 13 13 14 12 13 13 14 11 13 14 16 13 11 12 12 13
10 10 9 8 8 7 7 6 6 5 5 5 4 5 5 5 6 6 6 6 7 8 9 7 9 12 14 12 13 14 15 16 15 15 12 12 12 11 11 13 16 11 13
Wind_Direction
183 187 195 198 194 197 202 191 196 199 197 197 194 202 213 219 225 229 230 233 236 241 237 240 244 245 241 237 229 228 240 241 252 259 248 220 223 219 227 217 223 230 222
184 185 193 199 201 198 205 207 205 206 209 210 217 223 224 226 229 234 237 237 240 248 253 253 253 253 251 240 245 247 243 243 245 257 253 235 231 226 230 227 212 225 232
191 190 191 197 202 205 205 207 204 210 213 219 221 223 229 235 237 237 238 243 246 248 255 258 263 253 250 249 247 245 246 248 245 251 258 257 245 275 244 330 226 201 12
195 198 198 198 204 207 209 207 209 209 215 222 225 230 232 236 238 241 244 242 245 251 252 255 254 250 259 262 257 253 250 247 244 245 253 244 176 34 67 66 351 32 79
197 200 200 199 201 209 210 212 212 216 220 224 228 233 237 241 249 258 253 249 253 254 251 18 47 43 41 35 352 322 293 250 245 245 188 192 164 180 209 164 130 40 354
198 199 196 193 199 202 203 207 212 219 222 228 235 239 249 40 344 14 23 30 45 38 47 54 50 45 52 50 47 48 45 3 13 358 21 357 31 0 24 65 93 167 237
197 196 195 193 196 199 202 204 207 207 202 50 57 65 58 45 40 58 69 66 66 57 54 59 51 48 43 45 44 43 43 46 45 35 47 24 35 16 16 28 25 353 304
190 191 188 190 190 191 177 87 76 71 72 74 66 64 64 50 56 66 71 72 68 62 62 59 60 53 40 41 47 48 46 41 35 40 50 46 50 20 3 333 309 287 273
177 180 176 168 100 90 85 84 82 83 76 72 72 73 71 61 57 67 79 81 80 72 61 56 57 51 36 26 38 35 41 54 59 57 50 32 15 5 2 320 291 282 274
85 74 77 87 90 88 86 84 85 84 86 83 76 67 69 67 57 63 71 78 78 76 70 64 50 42 31 24 22 11 10 22 1 343 327 290 253 281 233 254 298 292 295
88 80 75 79 87 89 91 89 93 91 87 78 77 68 66 61 57 56 55 61 75 75 64 57 44 27 20 14 4 28 15 336 351 341 338 333 324 318 319 321 326 344 327
92 83 83 87 90 91 93 93 92 94 93 90 86 78 67 64 63 61 60 55 55 61 50 38 36 10 9 23 48 29 357 326 351 343 335 336 347 351 3 342 330 317 303
91 91 85 88 89 95 88 89 90 89 92 93 90 88 83 74 82 74 65 55 50 55 53 49 21 26 29 89 47 360 339 8 359 343 336 346 351 337 327 320 313 305 298
93 90 90 91 89 80 78 73 82 88 92 95 94 88 80 61 48 39 43 35 33 29 29 39 16 3 3 21 10 9 20 18 1 350 357 348 339 335 330 332 326 321 315
94 95 91 82 75 76 69 70 68 53 67 80 66 67 72 67 56 58 45 36 23 2 358 19 23 12 8 5 7 7 1 5 4 356 344 333 332 330 328 329 324 320 311
99 100 94 96 92 84 85 84 74 75 72 69 71 78 69 59 51 48 51 42 24 12 28 27 23 15 6 360 359 356 353 355 355 339 338 336 332 328 326 325 318 316 313
100 104 101 97 103 107 103 97 94 75 72 72 72 70 64 55 45 39 36 57 42 24 36 30 25 16 4 2 360 357 351 353 343 340 337 333 328 325 324 324 319 315 317
86 91 100 98 92 91 97 101 98 94 93 90 67 70 62 57 50 40 29 34 41 39 31 28 22 15 4 0 360 353 346 341 339 337 327 328 324 324 322 318 320 323 319
85 83 82 82 81 85 86 89 87 81 79 80 81 75 66 64 57 51 39 39 32 33 21 19 16 11 2 353 355 341 337 335 333 328 326 327 326 321 318 318 315 315 309
81 81 82 81 82 87 91 93 91 89 81 67 55 36 14 46 43 40 44 31 25 22 10 4 5 1 353 346 341 340 337 336 334 330 332 324 325 326 317 313 314 314 314
85 81 84 83 84 84 85 84 84 81 81 86 71 43 6 36 38 37 33 28 16 6 4 354 351 349 346 344 343 338 333 330 330 329 327 329 327 315 315 314 312 315 312
84 84 83 84 85 82 81 81 78 76 76 72 78 90 20 39 31 25 26 22 2 360 355 353 342 344 341 342 336 333 325 325 327 330 327 321 315 313 313 315 314 311 312
90 91 90 89 89 89 81 79 79 80 74 62 52 45 35 27 22 21 11 8 1 353 355 345 342 339 335 342 331 320 321 322 324 327 320 314 310 311 315 306 310 313 313
87 89 86 85 82 88 92 97 92 66 56 54 44 37 28 16 13 12 11 10 357 351 345 346 330 326 334 323 322 323 311 315 317 313 314 310 307 303 306 309 305 303 302
88 93 93 92 93 92 89 76 69 62 58 44 32 22 17 12 6 9 7 360 354 346 337 324 324 325 319 324 306 298 308 330 316 309 299 296 298 300 293 293 298 301 306
90 91 91 89 85 81 78 74 64 56 47 32 24 17 5 3 5 358 352 349 355 331 313 325 318 319 316 308 308 327 324 306 295 291 287 287 286 287 292 305 310 306 302